Year,Month,Day,Hour,Minute,Value (Times are PST for temperature in C)
2018,06,15,00,00,13.00
2018,06,15,00,01,13.00
2018,06,15,00,02,13.00
2018,06,15,00,03,13.00
2018,06,15,00,04,13.00
2018,06,15,00,05,13.00
2018,06,15,00,06,12.90
2018,06,15,00,07,12.90
2018,06,15,00,08,12.90
2018,06,15,00,09,12.90
2018,06,15,00,10,12.90
2018,06,15,00,11,12.90
2018,06,15,00,12,12.90
2018,06,15,00,13,12.90
2018,06,15,00,14,12.80
2018,06,15,00,15,12.80
2018,06,15,00,16,12.80
2018,06,15,00,17,12.80
2018,06,15,00,18,12.80
2018,06,15,00,19,12.80
2018,06,15,00,20,12.80
2018,06,15,00,21,12.80
2018,06,15,00,22,12.80
2018,06,15,00,23,12.80
2018,06,15,00,24,12.80
2018,06,15,00,25,12.80
2018,06,15,00,26,12.80
2018,06,15,00,27,12.80
2018,06,15,00,28,12.80
2018,06,15,00,29,12.80
2018,06,15,00,30,12.80
2018,06,15,00,31,12.80
2018,06,15,00,32,12.80
2018,06,15,00,33,12.80
2018,06,15,00,34,12.80
2018,06,15,00,35,12.80
2018,06,15,00,36,12.80
2018,06,15,00,37,12.80
2018,06,15,00,38,12.80
2018,06,15,00,39,12.80
2018,06,15,00,40,12.80
2018,06,15,00,41,12.80
2018,06,15,00,42,12.80
2018,06,15,00,43,12.80
2018,06,15,00,44,12.80
2018,06,15,00,45,12.80
2018,06,15,00,46,12.80
2018,06,15,00,47,12.80
2018,06,15,00,48,12.80
2018,06,15,00,49,12.80
2018,06,15,00,50,12.80
2018,06,15,00,51,12.80
2018,06,15,00,52,12.80
2018,06,15,00,53,12.80
2018,06,15,00,54,12.80
2018,06,15,00,55,12.80
2018,06,15,00,56,12.80
2018,06,15,00,57,12.80
2018,06,15,00,58,12.80
2018,06,15,00,59,12.80
2018,06,15,01,00,12.80
2018,06,15,01,01,12.80
2018,06,15,01,02,12.80
2018,06,15,01,03,12.80
2018,06,15,01,04,12.70
2018,06,15,01,05,12.70
2018,06,15,01,06,12.70
2018,06,15,01,07,12.70
2018,06,15,01,08,12.70
2018,06,15,01,09,12.70
2018,06,15,01,10,12.70
2018,06,15,01,11,12.70
2018,06,15,01,12,12.60
2018,06,15,01,13,12.60
2018,06,15,01,14,12.60
2018,06,15,01,15,12.60
2018,06,15,01,16,12.60
2018,06,15,01,17,12.60
2018,06,15,01,18,12.60
2018,06,15,01,19,12.50
2018,06,15,01,20,12.50
2018,06,15,01,21,12.50
2018,06,15,01,22,12.50
2018,06,15,01,23,12.40
2018,06,15,01,24,12.40
2018,06,15,01,25,12.40
2018,06,15,01,26,12.40
2018,06,15,01,27,12.40
2018,06,15,01,28,12.40
2018,06,15,01,29,12.40
2018,06,15,01,30,12.40
2018,06,15,01,31,12.40
2018,06,15,01,32,12.40
2018,06,15,01,33,12.40
2018,06,15,01,34,12.40
2018,06,15,01,35,12.40
2018,06,15,01,36,12.40
2018,06,15,01,37,12.40
2018,06,15,01,38,12.40
2018,06,15,01,39,12.40
2018,06,15,01,40,12.40
2018,06,15,01,41,12.40
2018,06,15,01,42,12.40
2018,06,15,01,43,12.40
2018,06,15,01,44,12.40
2018,06,15,01,45,12.40
2018,06,15,01,46,12.30
2018,06,15,01,47,12.30
2018,06,15,01,48,12.30
2018,06,15,01,49,12.30
2018,06,15,01,50,12.30
2018,06,15,01,51,12.30
2018,06,15,01,52,12.30
2018,06,15,01,53,12.30
2018,06,15,01,54,12.30
2018,06,15,01,55,12.30
2018,06,15,01,56,12.20
2018,06,15,01,57,12.20
2018,06,15,01,58,12.20
2018,06,15,01,59,12.20
2018,06,15,02,00,12.20
2018,06,15,02,01,12.20
2018,06,15,02,02,12.10
2018,06,15,02,03,12.10
2018,06,15,02,04,12.10
2018,06,15,02,05,12.10
2018,06,15,02,06,12.00
2018,06,15,02,07,12.00
2018,06,15,02,08,12.00
2018,06,15,02,09,12.00
2018,06,15,02,10,11.90
2018,06,15,02,11,11.90
2018,06,15,02,12,11.90
2018,06,15,02,13,11.90
2018,06,15,02,14,11.90
2018,06,15,02,15,11.80
2018,06,15,02,16,11.80
2018,06,15,02,17,11.80
2018,06,15,02,18,11.80
2018,06,15,02,19,11.80
2018,06,15,02,20,11.80
2018,06,15,02,21,11.80
2018,06,15,02,22,11.80
2018,06,15,02,23,11.80
2018,06,15,02,24,11.70
2018,06,15,02,25,11.70
2018,06,15,02,26,11.70
2018,06,15,02,27,11.70
2018,06,15,02,28,11.70
2018,06,15,02,29,11.70
2018,06,15,02,30,11.70
2018,06,15,02,31,11.60
2018,06,15,02,32,11.60
2018,06,15,02,33,11.60
2018,06,15,02,34,11.60
2018,06,15,02,35,11.60
2018,06,15,02,36,11.60
2018,06,15,02,37,11.60
2018,06,15,02,38,11.50
2018,06,15,02,39,11.50
2018,06,15,02,40,11.50
2018,06,15,02,41,11.50
2018,06,15,02,42,11.50
2018,06,15,02,43,11.40
2018,06,15,02,44,11.40
2018,06,15,02,45,11.40
2018,06,15,02,46,11.40
2018,06,15,02,47,11.40
2018,06,15,02,48,11.30
2018,06,15,02,49,11.30
2018,06,15,02,50,11.30
2018,06,15,02,51,11.30
2018,06,15,02,52,11.30
2018,06,15,02,53,11.20
2018,06,15,02,54,11.20
2018,06,15,02,55,11.20
2018,06,15,02,56,11.20
2018,06,15,02,57,11.10
2018,06,15,02,58,11.10
2018,06,15,02,59,11.10
2018,06,15,03,00,11.10
2018,06,15,03,01,11.00
2018,06,15,03,02,11.00
2018,06,15,03,03,11.00
2018,06,15,03,04,10.90
2018,06,15,03,05,10.90
2018,06,15,03,06,10.90
2018,06,15,03,07,10.90
2018,06,15,03,08,10.90
2018,06,15,03,09,10.90
2018,06,15,03,10,10.80
2018,06,15,03,11,10.80
2018,06,15,03,12,10.80
2018,06,15,03,13,10.80
2018,06,15,03,14,10.80
2018,06,15,03,15,10.80
2018,06,15,03,16,10.70
2018,06,15,03,17,10.70
2018,06,15,03,18,10.70
2018,06,15,03,19,10.70
2018,06,15,03,20,10.60
2018,06,15,03,21,10.60
2018,06,15,03,22,10.60
2018,06,15,03,23,10.60
2018,06,15,03,24,10.60
2018,06,15,03,25,10.60
2018,06,15,03,26,10.60
2018,06,15,03,27,10.60
2018,06,15,03,28,10.50
2018,06,15,03,29,10.50
2018,06,15,03,30,10.50
2018,06,15,03,31,10.50
2018,06,15,03,32,10.50
2018,06,15,03,33,10.50
2018,06,15,03,34,10.50
2018,06,15,03,35,10.40
2018,06,15,03,36,10.40
2018,06,15,03,37,10.40
2018,06,15,03,38,10.40
2018,06,15,03,39,10.40
2018,06,15,03,40,10.40
2018,06,15,03,41,10.40
2018,06,15,03,42,10.30
2018,06,15,03,43,10.30
2018,06,15,03,44,10.30
2018,06,15,03,45,10.30
2018,06,15,03,46,10.30
2018,06,15,03,47,10.30
2018,06,15,03,48,10.30
2018,06,15,03,49,10.20
2018,06,15,03,50,10.20
2018,06,15,03,51,10.20
2018,06,15,03,52,10.20
2018,06,15,03,53,10.20
2018,06,15,03,54,10.20
2018,06,15,03,55,10.20
2018,06,15,03,56,10.20
2018,06,15,03,57,10.20
2018,06,15,03,58,10.10
2018,06,15,03,59,10.10
2018,06,15,04,00,10.10
2018,06,15,04,01,10.10
2018,06,15,04,02,10.10
2018,06,15,04,03,10.10
2018,06,15,04,04,10.10
2018,06,15,04,05,10.10
2018,06,15,04,06,10.00
2018,06,15,04,07,10.00
2018,06,15,04,08,10.00
2018,06,15,04,09,10.00
2018,06,15,04,10,9.90
2018,06,15,04,11,9.90
2018,06,15,04,12,9.90
2018,06,15,04,13,9.90
2018,06,15,04,14,9.90
2018,06,15,04,15,9.90
2018,06,15,04,16,9.90
2018,06,15,04,17,9.90
2018,06,15,04,18,9.80
2018,06,15,04,19,9.80
2018,06,15,04,20,9.80
2018,06,15,04,21,9.80
2018,06,15,04,22,9.80
2018,06,15,04,23,9.80
2018,06,15,04,24,9.80
2018,06,15,04,25,9.80
2018,06,15,04,26,9.80
2018,06,15,04,27,9.80
2018,06,15,04,28,9.80
2018,06,15,04,29,9.80
2018,06,15,04,30,9.80
2018,06,15,04,31,9.80
2018,06,15,04,32,9.80
2018,06,15,04,33,9.80
2018,06,15,04,34,9.80
2018,06,15,04,35,9.70
2018,06,15,04,36,9.70
2018,06,15,04,37,9.70
2018,06,15,04,38,9.70
2018,06,15,04,39,9.70
2018,06,15,04,40,9.70
2018,06,15,04,41,9.70
2018,06,15,04,42,9.70
2018,06,15,04,43,9.70
2018,06,15,04,44,9.70
2018,06,15,04,45,9.70
2018,06,15,04,46,9.70
2018,06,15,04,47,9.70
2018,06,15,04,48,9.70
2018,06,15,04,49,9.70
2018,06,15,04,50,9.70
2018,06,15,04,51,9.70
2018,06,15,04,52,9.70
2018,06,15,04,53,9.70
2018,06,15,04,54,9.70
2018,06,15,04,55,9.70
2018,06,15,04,56,9.70
2018,06,15,04,57,9.70
2018,06,15,04,58,9.70
2018,06,15,04,59,9.70
2018,06,15,05,00,9.70
2018,06,15,05,01,9.70
2018,06,15,05,02,9.60
2018,06,15,05,03,9.60
2018,06,15,05,04,9.60
2018,06,15,05,05,9.60
2018,06,15,05,06,9.60
2018,06,15,05,07,9.60
2018,06,15,05,08,9.60
2018,06,15,05,09,9.60
2018,06,15,05,10,9.60
2018,06,15,05,11,9.60
2018,06,15,05,12,9.60
2018,06,15,05,13,9.60
2018,06,15,05,14,9.60
2018,06,15,05,15,9.60
2018,06,15,05,16,9.60
2018,06,15,05,17,9.60
2018,06,15,05,18,9.60
2018,06,15,05,19,9.60
2018,06,15,05,20,9.60
2018,06,15,05,21,9.60
2018,06,15,05,22,9.60
2018,06,15,05,23,9.60
2018,06,15,05,24,9.70
2018,06,15,05,25,9.70
2018,06,15,05,26,9.70
2018,06,15,05,27,9.70
2018,06,15,05,28,9.70
2018,06,15,05,29,9.70
2018,06,15,05,30,9.70
2018,06,15,05,31,9.70
2018,06,15,05,32,9.80
2018,06,15,05,33,9.80
2018,06,15,05,34,9.80
2018,06,15,05,35,9.80
2018,06,15,05,36,9.80
2018,06,15,05,37,9.80
2018,06,15,05,38,9.90
2018,06,15,05,39,9.90
2018,06,15,05,40,9.90
2018,06,15,05,41,9.90
2018,06,15,05,42,10.00
2018,06,15,05,43,10.00
2018,06,15,05,44,10.00
2018,06,15,05,45,10.10
2018,06,15,05,46,10.10
2018,06,15,05,47,10.10
2018,06,15,05,48,10.10
2018,06,15,05,49,10.20
2018,06,15,05,50,10.20
2018,06,15,05,51,10.20
2018,06,15,05,52,10.20
2018,06,15,05,53,10.20
2018,06,15,05,54,10.30
2018,06,15,05,55,10.30
2018,06,15,05,56,10.30
2018,06,15,05,57,10.30
2018,06,15,05,58,10.40
2018,06,15,05,59,10.40
2018,06,15,06,00,10.40
2018,06,15,06,01,10.50
2018,06,15,06,02,10.50
2018,06,15,06,03,10.50
2018,06,15,06,04,10.60
2018,06,15,06,05,10.60
2018,06,15,06,06,10.60
2018,06,15,06,07,10.60
2018,06,15,06,08,10.70
2018,06,15,06,09,10.70
2018,06,15,06,10,10.70
2018,06,15,06,11,10.70
2018,06,15,06,12,10.70
2018,06,15,06,13,10.80
2018,06,15,06,14,10.80
2018,06,15,06,15,10.80
2018,06,15,06,16,10.80
2018,06,15,06,17,10.80
2018,06,15,06,18,10.80
2018,06,15,06,19,10.80
2018,06,15,06,20,10.80
2018,06,15,06,21,10.90
2018,06,15,06,22,10.90
2018,06,15,06,23,10.90
2018,06,15,06,24,10.90
2018,06,15,06,25,10.90
2018,06,15,06,26,10.90
2018,06,15,06,27,10.90
2018,06,15,06,28,11.00
2018,06,15,06,29,11.00
2018,06,15,06,30,11.00
2018,06,15,06,31,11.00
2018,06,15,06,32,11.10
2018,06,15,06,33,11.10
2018,06,15,06,34,11.10
2018,06,15,06,35,11.10
2018,06,15,06,36,11.10
2018,06,15,06,37,11.20
2018,06,15,06,38,11.20
2018,06,15,06,39,11.20
2018,06,15,06,40,11.20
2018,06,15,06,41,11.20
2018,06,15,06,42,11.30
2018,06,15,06,43,11.30
2018,06,15,06,44,11.30
2018,06,15,06,45,11.30
2018,06,15,06,46,11.30
2018,06,15,06,47,11.40
2018,06,15,06,48,11.40
2018,06,15,06,49,11.40
2018,06,15,06,50,11.40
2018,06,15,06,51,11.50
2018,06,15,06,52,11.50
2018,06,15,06,53,11.50
2018,06,15,06,54,11.60
2018,06,15,06,55,11.60
2018,06,15,06,56,11.60
2018,06,15,06,57,11.70
2018,06,15,06,58,11.70
2018,06,15,06,59,11.70
2018,06,15,07,00,11.70
2018,06,15,07,01,11.80
2018,06,15,07,02,11.80
2018,06,15,07,03,11.80
2018,06,15,07,04,11.80
2018,06,15,07,05,11.90
2018,06,15,07,06,11.90
2018,06,15,07,07,11.90
2018,06,15,07,08,12.00
2018,06,15,07,09,12.00
2018,06,15,07,10,12.00
2018,06,15,07,11,12.10
2018,06,15,07,12,12.10
2018,06,15,07,13,12.10
2018,06,15,07,14,12.10
2018,06,15,07,15,12.20
2018,06,15,07,16,12.20
2018,06,15,07,17,12.20
2018,06,15,07,18,12.20
2018,06,15,07,19,12.30
2018,06,15,07,20,12.30
2018,06,15,07,21,12.30
2018,06,15,07,22,12.30
2018,06,15,07,23,12.30
2018,06,15,07,24,12.40
2018,06,15,07,25,12.40
2018,06,15,07,26,12.40
2018,06,15,07,27,12.40
2018,06,15,07,28,12.50
2018,06,15,07,29,12.50
2018,06,15,07,30,12.50
2018,06,15,07,31,12.60
2018,06,15,07,32,12.60
2018,06,15,07,33,12.60
2018,06,15,07,34,12.70
2018,06,15,07,35,12.70
2018,06,15,07,36,12.70
2018,06,15,07,37,12.70
2018,06,15,07,38,12.70
2018,06,15,07,39,12.80
2018,06,15,07,40,12.80
2018,06,15,07,41,12.80
2018,06,15,07,42,12.80
2018,06,15,07,43,12.80
2018,06,15,07,44,12.90
2018,06,15,07,45,12.90
2018,06,15,07,46,12.90
2018,06,15,07,47,12.90
2018,06,15,07,48,13.00
2018,06,15,07,49,13.00
2018,06,15,07,50,13.00
2018,06,15,07,51,13.10
2018,06,15,07,52,13.10
2018,06,15,07,53,13.10
2018,06,15,07,54,13.10
2018,06,15,07,55,13.10
2018,06,15,07,56,13.20
2018,06,15,07,57,13.20
2018,06,15,07,58,13.20
2018,06,15,07,59,13.20
2018,06,15,08,00,13.30
2018,06,15,08,01,13.30
2018,06,15,08,02,13.30
2018,06,15,08,03,13.30
2018,06,15,08,04,13.30
2018,06,15,08,05,13.40
2018,06,15,08,06,13.40
2018,06,15,08,07,13.40
2018,06,15,08,08,13.50
2018,06,15,08,09,13.50
2018,06,15,08,10,13.60
2018,06,15,08,11,13.60
2018,06,15,08,12,13.60
2018,06,15,08,13,13.70
2018,06,15,08,14,13.70
2018,06,15,08,15,13.70
2018,06,15,08,16,13.80
2018,06,15,08,17,13.80
2018,06,15,08,18,13.80
2018,06,15,08,19,13.80
2018,06,15,08,20,13.90
2018,06,15,08,21,13.90
2018,06,15,08,22,13.90
2018,06,15,08,23,14.00
2018,06,15,08,24,14.00
2018,06,15,08,25,14.10
2018,06,15,08,26,14.10
2018,06,15,08,27,14.10
2018,06,15,08,28,14.20
2018,06,15,08,29,14.20
2018,06,15,08,30,14.20
2018,06,15,08,31,14.30
2018,06,15,08,32,14.30
2018,06,15,08,33,14.30
2018,06,15,08,34,14.40
2018,06,15,08,35,14.40
2018,06,15,08,36,14.50
2018,06,15,08,37,14.50
2018,06,15,08,38,14.60
2018,06,15,08,39,14.60
2018,06,15,08,40,14.70
2018,06,15,08,41,14.70
2018,06,15,08,42,14.80
2018,06,15,08,43,14.90
2018,06,15,08,44,15.00
2018,06,15,08,45,15.10
2018,06,15,08,46,15.20
2018,06,15,08,47,15.30
2018,06,15,08,48,15.40
2018,06,15,08,49,15.40
2018,06,15,08,50,15.50
2018,06,15,08,51,15.50
2018,06,15,08,52,15.60
2018,06,15,08,53,15.70
2018,06,15,08,54,15.80
2018,06,15,08,55,15.90
2018,06,15,08,56,16.00
2018,06,15,08,57,16.10
2018,06,15,08,58,16.20
2018,06,15,08,59,16.30
2018,06,15,09,00,16.40
2018,06,15,09,01,16.50
2018,06,15,09,02,16.60
2018,06,15,09,03,16.80
2018,06,15,09,04,16.80
2018,06,15,09,05,16.90
2018,06,15,09,06,17.00
2018,06,15,09,07,17.00
2018,06,15,09,08,17.10
2018,06,15,09,09,17.10
2018,06,15,09,10,17.10
2018,06,15,09,11,17.10
2018,06,15,09,12,17.10
2018,06,15,09,13,17.10
2018,06,15,09,14,17.00
2018,06,15,09,15,17.00
2018,06,15,09,16,16.90
2018,06,15,09,17,16.80
2018,06,15,09,18,16.80
2018,06,15,09,19,16.80
2018,06,15,09,20,16.90
2018,06,15,09,21,16.90
2018,06,15,09,22,16.90
2018,06,15,09,23,16.90
2018,06,15,09,24,16.90
2018,06,15,09,25,17.00
2018,06,15,09,26,17.00
2018,06,15,09,27,17.10
2018,06,15,09,28,17.00
2018,06,15,09,29,17.00
2018,06,15,09,30,17.00
2018,06,15,09,31,17.00
2018,06,15,09,32,17.00
2018,06,15,09,33,17.10
2018,06,15,09,34,17.10
2018,06,15,09,35,17.20
2018,06,15,09,36,17.30
2018,06,15,09,37,17.30
2018,06,15,09,38,17.30
2018,06,15,09,39,17.20
2018,06,15,09,40,17.20
2018,06,15,09,41,17.20
2018,06,15,09,42,17.20
2018,06,15,09,43,17.20
2018,06,15,09,44,17.20
2018,06,15,09,45,17.20
2018,06,15,09,46,17.10
2018,06,15,09,47,17.10
2018,06,15,09,48,17.00
2018,06,15,09,49,17.00
2018,06,15,09,50,17.00
2018,06,15,09,51,16.90
2018,06,15,09,52,16.90
2018,06,15,09,53,16.90
2018,06,15,09,54,16.90
2018,06,15,09,55,16.90
2018,06,15,09,56,16.90
2018,06,15,09,57,16.90
2018,06,15,09,58,16.90
2018,06,15,09,59,16.90
2018,06,15,10,00,16.90
2018,06,15,10,01,16.90
2018,06,15,10,02,16.90
2018,06,15,10,03,16.90
2018,06,15,10,04,16.90
2018,06,15,10,05,16.80
2018,06,15,10,06,16.80
2018,06,15,10,07,16.80
2018,06,15,10,08,16.70
2018,06,15,10,09,16.70
2018,06,15,10,10,16.60
2018,06,15,10,11,16.60
2018,06,15,10,12,16.60
2018,06,15,10,13,16.60
2018,06,15,10,14,16.60
2018,06,15,10,15,16.60
2018,06,15,10,16,16.60
2018,06,15,10,17,16.70
2018,06,15,10,18,16.70
2018,06,15,10,19,16.60
2018,06,15,10,20,16.60
2018,06,15,10,21,16.60
2018,06,15,10,22,16.60
2018,06,15,10,23,16.60
2018,06,15,10,24,16.60
2018,06,15,10,25,16.60
2018,06,15,10,26,16.60
2018,06,15,10,27,16.60
2018,06,15,10,28,16.60
2018,06,15,10,29,16.60
2018,06,15,10,30,16.50
2018,06,15,10,31,16.50
2018,06,15,10,32,16.50
2018,06,15,10,33,16.50
2018,06,15,10,34,16.50
2018,06,15,10,35,16.60
2018,06,15,10,36,16.60
2018,06,15,10,37,16.60
2018,06,15,10,38,16.60
2018,06,15,10,39,16.70
2018,06,15,10,40,16.60
2018,06,15,10,41,16.60
2018,06,15,10,42,16.60
2018,06,15,10,43,16.60
2018,06,15,10,44,16.60
2018,06,15,10,45,16.60
2018,06,15,10,46,16.60
2018,06,15,10,47,16.60
2018,06,15,10,48,16.50
2018,06,15,10,49,16.50
2018,06,15,10,50,16.50
2018,06,15,10,51,16.50
2018,06,15,10,52,16.40
2018,06,15,10,53,16.40
2018,06,15,10,54,16.40
2018,06,15,10,55,16.40
2018,06,15,10,56,16.40
2018,06,15,10,57,16.40
2018,06,15,10,58,16.40
2018,06,15,10,59,16.40
2018,06,15,11,00,16.40
2018,06,15,11,01,16.50
2018,06,15,11,02,16.50
2018,06,15,11,03,16.50
2018,06,15,11,04,16.60
2018,06,15,11,05,16.60
2018,06,15,11,06,16.60
2018,06,15,11,07,16.70
2018,06,15,11,08,16.80
2018,06,15,11,09,16.80
2018,06,15,11,10,16.90
2018,06,15,11,11,17.00
2018,06,15,11,12,17.20
2018,06,15,11,13,17.20
2018,06,15,11,14,17.20
2018,06,15,11,15,17.20
2018,06,15,11,16,17.30
2018,06,15,11,17,17.30
2018,06,15,11,18,17.40
2018,06,15,11,19,17.50
2018,06,15,11,20,17.50
2018,06,15,11,21,17.40
2018,06,15,11,22,17.40
2018,06,15,11,23,17.40
2018,06,15,11,24,17.40
2018,06,15,11,25,17.40
2018,06,15,11,26,17.30
2018,06,15,11,27,17.30
2018,06,15,11,28,17.30
2018,06,15,11,29,17.40
2018,06,15,11,30,17.40
2018,06,15,11,31,17.40
2018,06,15,11,32,17.40
2018,06,15,11,33,17.40
2018,06,15,11,34,17.40
2018,06,15,11,35,17.40
2018,06,15,11,36,17.40
2018,06,15,11,37,17.40
2018,06,15,11,38,17.40
2018,06,15,11,39,17.50
2018,06,15,11,40,17.50
2018,06,15,11,41,17.50
2018,06,15,11,42,17.50
2018,06,15,11,43,17.60
2018,06,15,11,44,17.60
2018,06,15,11,45,17.50
2018,06,15,11,46,17.50
2018,06,15,11,47,17.40
2018,06,15,11,48,17.30
2018,06,15,11,49,17.30
2018,06,15,11,50,17.20
2018,06,15,11,51,17.20
2018,06,15,11,52,17.10
2018,06,15,11,53,17.10
2018,06,15,11,54,17.10
2018,06,15,11,55,17.10
2018,06,15,11,56,17.10
2018,06,15,11,57,17.00
2018,06,15,11,58,17.00
2018,06,15,11,59,16.90
2018,06,15,12,00,16.90
2018,06,15,12,01,16.90
2018,06,15,12,02,16.90
2018,06,15,12,03,16.90
2018,06,15,12,04,16.80
2018,06,15,12,05,16.80
2018,06,15,12,06,16.80
2018,06,15,12,07,16.80
2018,06,15,12,08,16.90
2018,06,15,12,09,17.00
2018,06,15,12,10,17.00
2018,06,15,12,11,17.10
2018,06,15,12,12,17.10
2018,06,15,12,13,17.10
2018,06,15,12,14,17.10
2018,06,15,12,15,17.00
2018,06,15,12,16,17.00
2018,06,15,12,17,17.00
2018,06,15,12,18,17.00
2018,06,15,12,19,17.00
2018,06,15,12,20,17.00
2018,06,15,12,21,17.10
2018,06,15,12,22,17.00
2018,06,15,12,23,17.00
2018,06,15,12,24,16.90
2018,06,15,12,25,17.00
2018,06,15,12,26,16.90
2018,06,15,12,27,17.00
2018,06,15,12,28,17.00
2018,06,15,12,29,17.00
2018,06,15,12,30,17.00
2018,06,15,12,31,16.90
2018,06,15,12,32,16.90
2018,06,15,12,33,17.00
2018,06,15,12,34,17.00
2018,06,15,12,35,16.90
2018,06,15,12,36,16.90
2018,06,15,12,37,16.90
2018,06,15,12,38,16.90
2018,06,15,12,39,16.90
2018,06,15,12,40,16.80
2018,06,15,12,41,16.80
2018,06,15,12,42,16.80
2018,06,15,12,43,16.80
2018,06,15,12,44,16.80
2018,06,15,12,45,16.80
2018,06,15,12,46,16.80
2018,06,15,12,47,16.80
2018,06,15,12,48,16.80
2018,06,15,12,49,16.80
2018,06,15,12,50,16.80
2018,06,15,12,51,16.90
2018,06,15,12,52,16.90
2018,06,15,12,53,16.90
2018,06,15,12,54,16.90
2018,06,15,12,55,16.90
2018,06,15,12,56,16.90
2018,06,15,12,57,17.00
2018,06,15,12,58,17.10
2018,06,15,12,59,17.10
2018,06,15,13,00,17.20
2018,06,15,13,01,17.20
2018,06,15,13,02,17.10
2018,06,15,13,03,17.10
2018,06,15,13,04,17.10
2018,06,15,13,05,17.00
2018,06,15,13,06,17.00
2018,06,15,13,07,17.00
2018,06,15,13,08,17.00
2018,06,15,13,09,17.10
2018,06,15,13,10,17.00
2018,06,15,13,11,17.00
2018,06,15,13,12,17.10
2018,06,15,13,13,17.10
2018,06,15,13,14,17.20
2018,06,15,13,15,17.20
2018,06,15,13,16,17.20
2018,06,15,13,17,17.30
2018,06,15,13,18,17.30
2018,06,15,13,19,17.40
2018,06,15,13,20,17.40
2018,06,15,13,21,17.40
2018,06,15,13,22,17.50
2018,06,15,13,23,17.50
2018,06,15,13,24,17.60
2018,06,15,13,25,17.60
2018,06,15,13,26,17.50
2018,06,15,13,27,17.50
2018,06,15,13,28,17.60
2018,06,15,13,29,17.60
2018,06,15,13,30,17.70
2018,06,15,13,31,17.70
2018,06,15,13,32,17.80
2018,06,15,13,33,17.80
2018,06,15,13,34,17.90
2018,06,15,13,35,17.90
2018,06,15,13,36,18.00
2018,06,15,13,37,18.00
2018,06,15,13,38,18.00
2018,06,15,13,39,18.10
2018,06,15,13,40,18.10
2018,06,15,13,41,18.20
2018,06,15,13,42,18.20
2018,06,15,13,43,18.20
2018,06,15,13,44,18.30
2018,06,15,13,45,18.30
2018,06,15,13,46,18.30
2018,06,15,13,47,18.30
2018,06,15,13,48,18.20
2018,06,15,13,49,18.30
2018,06,15,13,50,18.30
2018,06,15,13,51,18.30
2018,06,15,13,52,18.20
2018,06,15,13,53,18.20
2018,06,15,13,54,18.20
2018,06,15,13,55,18.20
2018,06,15,13,56,18.20
2018,06,15,13,57,18.20
2018,06,15,13,58,18.30
2018,06,15,13,59,18.30
2018,06,15,14,00,18.30
2018,06,15,14,01,18.30
2018,06,15,14,02,18.40
2018,06,15,14,03,18.40
2018,06,15,14,04,18.50
2018,06,15,14,05,18.60
2018,06,15,14,06,18.60
2018,06,15,14,07,18.70
2018,06,15,14,08,18.70
2018,06,15,14,09,18.80
2018,06,15,14,10,18.80
2018,06,15,14,11,18.70
2018,06,15,14,12,18.70
2018,06,15,14,13,18.70
2018,06,15,14,14,18.60
2018,06,15,14,15,18.60
2018,06,15,14,16,18.60
2018,06,15,14,17,18.60
2018,06,15,14,18,18.60
2018,06,15,14,19,18.60
2018,06,15,14,20,18.50
2018,06,15,14,21,18.50
2018,06,15,14,22,18.50
2018,06,15,14,23,18.50
2018,06,15,14,24,18.50
2018,06,15,14,25,18.60
2018,06,15,14,26,18.60
2018,06,15,14,27,18.50
2018,06,15,14,28,18.50
2018,06,15,14,29,18.40
2018,06,15,14,30,18.40
2018,06,15,14,31,18.40
2018,06,15,14,32,18.30
2018,06,15,14,33,18.30
2018,06,15,14,34,18.30
2018,06,15,14,35,18.30
2018,06,15,14,36,18.40
2018,06,15,14,37,18.40
2018,06,15,14,38,18.40
2018,06,15,14,39,18.40
2018,06,15,14,40,18.50
2018,06,15,14,41,18.60
2018,06,15,14,42,18.70
2018,06,15,14,43,18.80
2018,06,15,14,44,18.80
2018,06,15,14,45,18.80
2018,06,15,14,46,18.90
2018,06,15,14,47,18.90
2018,06,15,14,48,18.90
2018,06,15,14,49,18.90
2018,06,15,14,50,18.90
2018,06,15,14,51,18.90
2018,06,15,14,52,18.90
2018,06,15,14,53,19.00
2018,06,15,14,54,19.00
2018,06,15,14,55,19.00
2018,06,15,14,56,19.00
2018,06,15,14,57,19.10
2018,06,15,14,58,19.10
2018,06,15,14,59,19.10
2018,06,15,15,00,19.10
2018,06,15,15,01,19.10
2018,06,15,15,02,19.00
2018,06,15,15,03,19.00
2018,06,15,15,04,18.90
2018,06,15,15,05,18.90
2018,06,15,15,06,18.90
2018,06,15,15,07,18.90
2018,06,15,15,08,18.90
2018,06,15,15,09,19.00
2018,06,15,15,10,19.00
2018,06,15,15,11,19.10
2018,06,15,15,12,19.10
2018,06,15,15,13,19.10
2018,06,15,15,14,19.20
2018,06,15,15,15,19.20
2018,06,15,15,16,19.20
2018,06,15,15,17,19.10
2018,06,15,15,18,19.20
2018,06,15,15,19,19.20
2018,06,15,15,20,19.20
2018,06,15,15,21,19.30
2018,06,15,15,22,19.30
2018,06,15,15,23,19.30
2018,06,15,15,24,19.40
2018,06,15,15,25,19.50
2018,06,15,15,26,19.50
2018,06,15,15,27,19.60
2018,06,15,15,28,19.70
2018,06,15,15,29,19.70
2018,06,15,15,30,19.80
2018,06,15,15,31,19.80
2018,06,15,15,32,19.90
2018,06,15,15,33,20.00
2018,06,15,15,34,20.10
2018,06,15,15,35,20.20
2018,06,15,15,36,20.30
2018,06,15,15,37,20.30
2018,06,15,15,38,20.40
2018,06,15,15,39,20.50
2018,06,15,15,40,20.60
2018,06,15,15,41,20.80
2018,06,15,15,42,20.90
2018,06,15,15,43,20.90
2018,06,15,15,44,20.90
2018,06,15,15,45,20.80
2018,06,15,15,46,20.80
2018,06,15,15,47,20.80
2018,06,15,15,48,20.90
2018,06,15,15,49,20.80
2018,06,15,15,50,20.80
2018,06,15,15,51,20.80
2018,06,15,15,52,20.80
2018,06,15,15,53,20.70
2018,06,15,15,54,20.60
2018,06,15,15,55,20.50
2018,06,15,15,56,20.40
2018,06,15,15,57,20.30
2018,06,15,15,58,20.20
2018,06,15,15,59,20.20
2018,06,15,16,00,20.10
2018,06,15,16,01,20.10
2018,06,15,16,02,20.20
2018,06,15,16,03,20.20
2018,06,15,16,04,20.20
2018,06,15,16,05,20.20
2018,06,15,16,06,20.20
2018,06,15,16,07,20.20
2018,06,15,16,08,20.20
2018,06,15,16,09,20.30
2018,06,15,16,10,20.30
2018,06,15,16,11,20.30
2018,06,15,16,12,20.20
2018,06,15,16,13,20.10
2018,06,15,16,14,20.00
2018,06,15,16,15,19.90
2018,06,15,16,16,19.80
2018,06,15,16,17,19.80
2018,06,15,16,18,19.80
2018,06,15,16,19,19.80
2018,06,15,16,20,19.80
2018,06,15,16,21,19.70
2018,06,15,16,22,19.60
2018,06,15,16,23,19.60
2018,06,15,16,24,19.60
2018,06,15,16,25,19.60
2018,06,15,16,26,19.60
2018,06,15,16,27,19.50
2018,06,15,16,28,19.50
2018,06,15,16,29,19.50
2018,06,15,16,30,19.60
2018,06,15,16,31,19.60
2018,06,15,16,32,19.60
2018,06,15,16,33,19.60
2018,06,15,16,34,19.60
2018,06,15,16,35,19.50
2018,06,15,16,36,19.50
2018,06,15,16,37,19.50
2018,06,15,16,38,19.50
2018,06,15,16,39,19.50
2018,06,15,16,40,19.40
2018,06,15,16,41,19.40
2018,06,15,16,42,19.40
2018,06,15,16,43,19.40
2018,06,15,16,44,19.40
2018,06,15,16,45,19.40
2018,06,15,16,46,19.40
2018,06,15,16,47,19.30
2018,06,15,16,48,19.30
2018,06,15,16,49,19.30
2018,06,15,16,50,19.30
2018,06,15,16,51,19.30
2018,06,15,16,52,19.20
2018,06,15,16,53,19.20
2018,06,15,16,54,19.20
2018,06,15,16,55,19.20
2018,06,15,16,56,19.20
2018,06,15,16,57,19.10
2018,06,15,16,58,19.10
2018,06,15,16,59,19.00
2018,06,15,17,00,19.00
2018,06,15,17,01,18.90
2018,06,15,17,02,18.90
2018,06,15,17,03,18.90
2018,06,15,17,04,18.80
2018,06,15,17,05,18.80
2018,06,15,17,06,18.80
2018,06,15,17,07,18.80
2018,06,15,17,08,18.80
2018,06,15,17,09,18.80
2018,06,15,17,10,18.80
2018,06,15,17,11,18.90
2018,06,15,17,12,18.90
2018,06,15,17,13,18.90
2018,06,15,17,14,18.90
2018,06,15,17,15,18.90
2018,06,15,17,16,18.80
2018,06,15,17,17,18.80
2018,06,15,17,18,18.80
2018,06,15,17,19,18.80
2018,06,15,17,20,18.80
2018,06,15,17,21,18.80
2018,06,15,17,22,18.80
2018,06,15,17,23,18.80